| time (UTC) | temp C | wind direction | speed KPH | gust KPH | rain 1hr cm | rain 24hr cm | rain mn cm | humidity % | barometer mb |
| 20260507234533 | 7 | 0 | 0.0 | 1.6 | 0.00 | 0.08 | 0.00 | 94 | 1015.5 |
| 20260507234030 | 7 | 0 | 1.6 | 1.6 | 0.00 | 0.08 | 0.00 | 94 | 1015.6 |
| 20260507233534 | 7 | 0 | 0.0 | 1.6 | 0.00 | 0.08 | 0.00 | 94 | 1015.5 |
| 20260507233031 | 7 | 0 | 0.0 | 1.6 | 0.00 | 0.08 | 0.00 | 94 | 1015.6 |
| 20260507232539 | 7 | 0 | 1.6 | 1.6 | 0.00 | 0.08 | 0.00 | 94 | 1015.7 |
| 20260507232031 | 7 | 0 | 0.0 | 1.6 | 0.00 | 0.08 | 0.00 | 94 | 1015.9 |
| 20260507231530 | 7 | 0 | 1.6 | 1.6 | 0.00 | 0.08 | 0.00 | 94 | 1015.7 |
| 20260507231030 | 7 | 0 | 0.0 | 1.6 | 0.00 | 0.08 | 0.00 | 94 | 1015.8 |
| 20260507230530 | 7 | 0 | 0.0 | 0.0 | 0.00 | 0.08 | 0.00 | 94 | 1015.9 |
| 20260507230034 | 7 | 0 | 0.0 | 1.6 | 0.00 | 0.08 | 0.00 | 94 | 1015.9 |
| 20260507225531 | 7 | 0 | 1.6 | 1.6 | 0.00 | 0.08 | 0.00 | 94 | 1016.0 |
| 20260507225037 | 7 | 0 | 0.0 | 1.6 | 0.00 | 0.08 | 0.00 | 94 | 1016.1 |
| 20260507224533 | 7 | 0 | 0.0 | 1.6 | 0.00 | 0.08 | 0.00 | 94 | 1016.1 |
| 20260507224031 | 7 | 0 | 1.6 | 0.0 | 0.00 | 0.08 | 0.00 | 94 | 1016.0 |
| 20260507223533 | 7 | 0 | 0.0 | 1.6 | 0.00 | 0.08 | 0.00 | 94 | 1016.2 |
| 20260507223031 | 6 | 0 | 0.0 | 3.2 | 0.00 | 0.08 | 0.00 | 94 | 1016.0 |
| 20260507222531 | 6 | 0 | 1.6 | 3.2 | 0.00 | 0.08 | 0.00 | 94 | 1016.1 |
| 20260507222030 | 6 | 0 | 0.0 | 0.0 | 0.00 | 0.08 | 0.00 | 94 | 1016.0 |
| 20260507221530 | 6 | 0 | 0.0 | 1.6 | 0.00 | 0.08 | 0.00 | 94 | 1016.0 |
| 20260507221036 | 6 | 0 | 0.0 | 0.0 | 0.00 | 0.08 | 0.00 | 94 | 1015.9 |
| 20260507220530 | 6 | 0 | 0.0 | 1.6 | 0.00 | 0.08 | 0.00 | 93 | 1015.9 |
| 20260507220036 | 6 | 0 | 0.0 | 3.2 | 0.00 | 0.08 | 0.00 | 93 | 1016.1 |
| 20260507215531 | 6 | 0 | 0.0 | 1.6 | 0.00 | 0.08 | 0.00 | 93 | 1016.0 |
| 20260507215037 | 6 | 0 | 0.0 | 1.6 | 0.00 | 0.08 | 0.00 | 93 | 1016.0 |
| 20260507214531 | 6 | 0 | 0.0 | 3.2 | 0.00 | 0.08 | 0.00 | 93 | 1016.0 |
| 20260507214030 | 6 | 0 | 1.6 | 3.2 | 0.00 | 0.08 | 0.00 | 93 | 1015.9 |
| 20260507213533 | 6 | 0 | 1.6 | 1.6 | 0.00 | 0.08 | 0.00 | 93 | 1015.9 |
| 20260507213030 | 6 | 0 | 0.0 | 1.6 | 0.00 | 0.08 | 0.00 | 93 | 1015.8 |
| 20260507212533 | 6 | 0 | 0.0 | 1.6 | 0.00 | 0.08 | 0.00 | 92 | 1015.8 |
| 20260507212030 | 6 | 0 | 0.0 | 1.6 | 0.00 | 0.08 | 0.00 | 93 | 1015.8 |
| 20260507211531 | 6 | 0 | 0.0 | 1.6 | 0.00 | 0.08 | 0.00 | 92 | 1015.8 |
| 20260507211030 | 6 | 0 | 0.0 | 1.6 | 0.00 | 0.08 | 0.00 | 92 | 1015.7 |
| 20260507210536 | 7 | 0 | 1.6 | 1.6 | 0.00 | 0.08 | 0.00 | 92 | 1015.8 |
| 20260507210030 | 7 | 0 | 0.0 | 1.6 | 0.00 | 0.08 | 0.00 | 93 | 1015.7 |
| 20260507205537 | 7 | 0 | 0.0 | 1.6 | 0.00 | 0.08 | 0.00 | 92 | 1015.8 |
| 20260507205036 | 7 | 0 | 0.0 | 0.0 | 0.00 | 0.08 | 0.00 | 93 | 1015.8 |
| 20260507204530 | 7 | 0 | 0.0 | 0.0 | 0.00 | 0.08 | 0.00 | 92 | 1015.7 |
| 20260507204039 | 7 | 0 | 0.0 | 1.6 | 0.00 | 0.08 | 0.00 | 92 | 1015.7 |
| 20260507203531 | 7 | 0 | 1.6 | 1.6 | 0.00 | 0.08 | 0.00 | 91 | 1015.9 |
| 20260507203036 | 7 | 0 | 0.0 | 1.6 | 0.00 | 0.08 | 0.00 | 91 | 1015.6 |
| 20260507202536 | 7 | 0 | 1.6 | 3.2 | 0.00 | 0.08 | 0.00 | 91 | 1015.8 |
| 20260507202031 | 7 | 0 | 1.6 | 1.6 | 0.00 | 0.08 | 0.00 | 91 | 1015.7 |
| 20260507201530 | 7 | 0 | 1.6 | 3.2 | 0.00 | 0.08 | 0.00 | 91 | 1015.5 |
| 20260507201033 | 7 | 0 | 1.6 | 1.6 | 0.00 | 0.08 | 0.00 | 91 | 1015.5 |
| 20260507200531 | 7 | 0 | 1.6 | 3.2 | 0.00 | 0.08 | 0.00 | 91 | 1015.4 |
| 20260507200034 | 7 | 0 | 1.6 | 4.8 | 0.00 | 0.08 | 0.00 | 91 | 1015.4 |
| 20260507195534 | 8 | 0 | 1.6 | 1.6 | 0.00 | 0.08 | 0.00 | 91 | 1015.3 |
| 20260507195033 | 8 | 0 | 0.0 | 1.6 | 0.00 | 0.08 | 0.00 | 91 | 1015.2 |
| 20260507194530 | 8 | 0 | 0.0 | 1.6 | 0.00 | 0.08 | 0.00 | 90 | 1015.2 |
| 20260507194034 | 8 | 0 | 1.6 | 3.2 | 0.00 | 0.08 | 0.00 | 90 | 1015.0 |
| 20260507193534 | 8 | 0 | 1.6 | 3.2 | 0.03 | 0.08 | 0.00 | 90 | 1014.8 |
| 20260507193036 | 8 | 0 | 1.6 | 4.8 | 0.03 | 0.08 | 0.00 | 90 | 1014.8 |
| 20260507192539 | 8 | 0 | 3.2 | 4.8 | 0.05 | 0.08 | 0.00 | 89 | 1014.7 |
| 20260507192034 | 8 | 0 | 1.6 | 4.8 | 0.08 | 0.08 | 0.00 | 89 | 1014.8 |
| 20260507191536 | 8 | 0 | 3.2 | 4.8 | 0.08 | 0.08 | 0.00 | 89 | 1014.8 |
| 20260507191030 | 9 | 0 | 1.6 | 1.6 | 0.08 | 0.08 | 0.00 | 89 | 1014.7 |
| 20260507190537 | 9 | 0 | 0.0 | 3.2 | 0.08 | 0.08 | 0.00 | 88 | 1014.7 |
| 20260507190033 | 9 | 0 | 1.6 | 3.2 | 0.08 | 0.08 | 0.00 | 88 | 1014.7 |
| 20260507185530 | 10 | 0 | 1.6 | 1.6 | 0.08 | 0.08 | 0.00 | 88 | 1014.7 |
| 20260507185031 | 10 | 0 | 0.0 | 1.6 | 0.08 | 0.08 | 0.00 | 87 | 1014.5 |
| 20260507184537 | 10 | 0 | 0.0 | 1.6 | 0.05 | 0.05 | 0.00 | 87 | 1014.6 |
| 20260507184030 | 10 | 0 | 0.0 | 1.6 | 0.05 | 0.05 | 0.00 | 86 | 1014.5 |
| 20260507183530 | 10 | 0 | 1.6 | 3.2 | 0.03 | 0.03 | 0.00 | 84 | 1014.4 |
| 20260507183038 | 10 | 0 | 0.0 | 4.8 | 0.03 | 0.03 | 0.00 | 82 | 1014.5 |
| 20260507182532 | 11 | 0 | 1.6 | 3.2 | 0.00 | 0.00 | 0.00 | 82 | 1014.5 |
| 20260507182033 | 11 | 0 | 1.6 | 3.2 | 0.00 | 0.00 | 0.00 | 79 | 1014.4 |
| 20260507181531 | 11 | 0 | 1.6 | 4.8 | 0.00 | 0.00 | 0.00 | 78 | 1014.2 |
| 20260507181033 | 11 | 0 | 0.0 | 1.6 | 0.00 | 0.00 | 0.00 | 78 | 1014.2 |
| 20260507180535 | 11 | 0 | 0.0 | 1.6 | 0.00 | 0.00 | 0.00 | 78 | 1014.1 |
| 20260507180030 | 11 | 0 | 1.6 | 3.2 | 0.00 | 0.00 | 0.00 | 76 | 1014.0 |
| 20260507175534 | 11 | 0 | 1.6 | 6.4 | 0.00 | 0.00 | 0.00 | 75 | 1014.0 |
| 20260507175031 | 11 | 0 | 0.0 | 6.4 | 0.00 | 0.00 | 0.00 | 75 | 1014.0 |
| 20260507174533 | 11 | 0 | 0.0 | 4.8 | 0.00 | 0.00 | 0.00 | 77 | 1014.0 |
| 20260507174033 | 11 | 0 | 1.6 | 1.6 | 0.00 | 0.00 | 0.00 | 76 | 1013.9 |
| 20260507173533 | 11 | 0 | 0.0 | 1.6 | 0.00 | 0.00 | 0.00 | 76 | 1013.7 |
| 20260507173031 | 11 | 0 | 1.6 | 4.8 | 0.00 | 0.00 | 0.00 | 75 | 1013.7 |
| 20260507172530 | 11 | 0 | 1.6 | 4.8 | 0.00 | 0.00 | 0.00 | 75 | 1013.7 |
| 20260507172033 | 11 | 0 | 4.8 | 4.8 | 0.00 | 0.00 | 0.00 | 75 | 1013.6 |
| 20260507171536 | 12 | 0 | 0.0 | 3.2 | 0.00 | 0.00 | 0.00 | 75 | 1013.6 |
| 20260507171036 | 12 | 0 | 1.6 | 1.6 | 0.00 | 0.00 | 0.00 | 76 | 1013.6 |
| 20260507170536 | 12 | 0 | 0.0 | 1.6 | 0.00 | 0.00 | 0.00 | 76 | 1013.5 |
| 20260507170030 | 12 | 0 | 3.2 | 3.2 | 0.00 | 0.00 | 0.00 | 75 | 1013.4 |
| 20260507165533 | 12 | 0 | 1.6 | 3.2 | 0.00 | 0.00 | 0.00 | 78 | 1013.5 |
| 20260507165031 | 11 | 0 | 1.6 | 4.8 | 0.00 | 0.00 | 0.00 | 78 | 1013.3 |
| 20260507164530 | 11 | 0 | 0.0 | 4.8 | 0.00 | 0.00 | 0.00 | 77 | 1013.3 |
| 20260507164033 | 11 | 0 | 0.0 | 4.8 | 0.00 | 0.00 | 0.00 | 78 | 1013.2 |
| 20260507163530 | 12 | 0 | 1.6 | 3.2 | 0.00 | 0.00 | 0.00 | 78 | 1013.2 |
| 20260507163033 | 12 | 0 | 1.6 | 3.2 | 0.00 | 0.00 | 0.00 | 78 | 1013.1 |
| 20260507162530 | 12 | 0 | 1.6 | 3.2 | 0.00 | 0.00 | 0.00 | 78 | 1013.2 |
| 20260507162037 | 12 | 0 | 1.6 | 4.8 | 0.00 | 0.00 | 0.00 | 78 | 1013.1 |
| 20260507161530 | 12 | 0 | 1.6 | 6.4 | 0.00 | 0.00 | 0.00 | 78 | 1013.0 |
| 20260507161031 | 12 | 0 | 3.2 | 6.4 | 0.00 | 0.00 | 0.00 | 78 | 1012.8 |
| 20260507160530 | 12 | 0 | 3.2 | 6.4 | 0.00 | 0.00 | 0.00 | 78 | 1012.7 |
| 20260507160033 | 12 | 0 | 3.2 | 4.8 | 0.00 | 0.00 | 0.00 | 78 | 1012.8 |
| 20260507155531 | 12 | 0 | 1.6 | 3.2 | 0.00 | 0.00 | 0.00 | 78 | 1012.7 |
| 20260507155030 | 12 | 0 | 1.6 | 4.8 | 0.00 | 0.00 | 0.00 | 78 | 1012.7 |
| 20260507154530 | 12 | 0 | 4.8 | 4.8 | 0.00 | 0.00 | 0.00 | 78 | 1012.6 |
| 20260507154030 | 12 | 0 | 1.6 | 6.4 | 0.00 | 0.00 | 0.00 | 78 | 1012.4 |
| 20260507153530 | 12 | 0 | 3.2 | 6.4 | 0.00 | 0.00 | 0.00 | 78 | 1012.4 |
| 20260507153036 | 12 | 0 | 4.8 | 6.4 | 0.00 | 0.00 | 0.00 | 77 | 1012.4 |
| 20260507152536 | 12 | 0 | 1.6 | 4.8 | 0.00 | 0.00 | 0.00 | 77 | 1012.4 |
| 20260507152039 | 12 | 0 | 4.8 | 6.4 | 0.00 | 0.00 | 0.00 | 77 | 1012.2 |
| 20260507151530 | 12 | 0 | 3.2 | 9.7 | 0.00 | 0.00 | 0.00 | 76 | 1012.3 |
| 20260507151030 | 12 | 0 | 3.2 | 4.8 | 0.00 | 0.00 | 0.00 | 76 | 1012.3 |
| 20260507150530 | 12 | 0 | 3.2 | 6.4 | 0.00 | 0.00 | 0.00 | 76 | 1012.2 |
| 20260507150031 | 12 | 0 | 4.8 | 6.4 | 0.00 | 0.00 | 0.00 | 76 | 1012.2 |
| 20260507145533 | 12 | 0 | 3.2 | 6.4 | 0.00 | 0.00 | 0.00 | 75 | 1012.2 |
| 20260507145031 | 12 | 0 | 1.6 | 6.4 | 0.00 | 0.00 | 0.00 | 75 | 1012.3 |
| 20260507144534 | 12 | 0 | 3.2 | 9.7 | 0.00 | 0.00 | 0.00 | 74 | 1012.2 |
| 20260507144034 | 12 | 0 | 1.6 | 8.0 | 0.00 | 0.00 | 0.00 | 75 | 1012.2 |
| 20260507143531 | 12 | 0 | 4.8 | 9.7 | 0.00 | 0.00 | 0.00 | 75 | 1012.1 |
| 20260507143036 | 12 | 0 | 6.4 | 9.7 | 0.00 | 0.00 | 0.00 | 74 | 1012.1 |
| 20260507142533 | 12 | 0 | 3.2 | 8.0 | 0.00 | 0.00 | 0.00 | 74 | 1012.2 |
| 20260507142036 | 12 | 0 | 3.2 | 6.4 | 0.00 | 0.00 | 0.00 | 75 | 1012.0 |
| 20260507141534 | 12 | 0 | 3.2 | 8.0 | 0.00 | 0.00 | 0.00 | 73 | 1012.1 |
| 20260507141031 | 12 | 0 | 6.4 | 9.7 | 0.00 | 0.00 | 0.00 | 73 | 1012.0 |
| 20260507140530 | 13 | 0 | 4.8 | 9.7 | 0.00 | 0.00 | 0.00 | 73 | 1011.8 |
| 20260507140030 | 13 | 0 | 3.2 | 8.0 | 0.00 | 0.00 | 0.00 | 72 | 1011.9 |
| 20260507135530 | 13 | 0 | 8.0 | 9.7 | 0.00 | 0.00 | 0.00 | 73 | 1011.9 |
| 20260507135030 | 13 | 0 | 3.2 | 6.4 | 0.00 | 0.00 | 0.00 | 72 | 1012.0 |
| 20260507134539 | 13 | 0 | 1.6 | 9.7 | 0.00 | 0.00 | 0.00 | 72 | 1011.8 |
| 20260507134030 | 13 | 0 | 6.4 | 12.9 | 0.00 | 0.00 | 0.00 | 71 | 1012.0 |
| 20260507133530 | 13 | 0 | 4.8 | 8.0 | 0.00 | 0.00 | 0.00 | 71 | 1012.0 |
| 20260507133037 | 13 | 0 | 3.2 | 9.7 | 0.00 | 0.00 | 0.00 | 70 | 1012.1 |
| 20260507132530 | 13 | 0 | 4.8 | 8.0 | 0.00 | 0.00 | 0.00 | 72 | 1012.1 |
| 20260507132033 | 13 | 0 | 6.4 | 12.9 | 0.00 | 0.00 | 0.00 | 73 | 1012.0 |
| 20260507131530 | 13 | 0 | 1.6 | 8.0 | 0.00 | 0.00 | 0.00 | 72 | 1012.0 |
| 20260507131036 | 12 | 0 | 3.2 | 8.0 | 0.00 | 0.00 | 0.00 | 71 | 1012.0 |
| 20260507130534 | 13 | 0 | 4.8 | 8.0 | 0.00 | 0.00 | 0.00 | 70 | 1011.9 |
| 20260507130031 | 13 | 0 | 4.8 | 12.9 | 0.00 | 0.00 | 0.00 | 70 | 1011.9 |
| 20260507125536 | 13 | 0 | 3.2 | 9.7 | 0.00 | 0.00 | 0.00 | 70 | 1011.8 |
| 20260507125036 | 13 | 0 | 3.2 | 14.5 | 0.00 | 0.00 | 0.00 | 71 | 1011.8 |
| 20260507124530 | 13 | 0 | 8.0 | 8.0 | 0.00 | 0.00 | 0.00 | 71 | 1011.8 |
| 20260507124034 | 13 | 0 | 4.8 | 12.9 | 0.00 | 0.00 | 0.00 | 71 | 1011.7 |
| 20260507123530 | 13 | 0 | 1.6 | 8.0 | 0.00 | 0.00 | 0.00 | 71 | 1011.6 |
| 20260507123030 | 13 | 0 | 1.6 | 12.9 | 0.00 | 0.00 | 0.00 | 73 | 1011.8 |
| 20260507122531 | 12 | 0 | 4.8 | 6.4 | 0.00 | 0.00 | 0.00 | 74 | 1011.6 |
| 20260507122033 | 12 | 0 | 3.2 | 9.7 | 0.00 | 0.00 | 0.00 | 72 | 1011.7 |
| 20260507121530 | 12 | 0 | 3.2 | 12.9 | 0.00 | 0.00 | 0.00 | 72 | 1011.7 |
| 20260507121039 | 12 | 0 | 3.2 | 12.9 | 0.00 | 0.00 | 0.00 | 72 | 1011.7 |
| 20260507120530 | 12 | 0 | 8.0 | 14.5 | 0.00 | 0.00 | 0.00 | 74 | 1011.5 |
| 20260507120030 | 12 | 0 | 9.7 | 9.7 | 0.00 | 0.00 | 0.00 | 74 | 1011.4 |
| 20260507115530 | 12 | 0 | 4.8 | 9.7 | 0.00 | 0.00 | 0.00 | 74 | 1011.4 |
| 20260507115030 | 12 | 0 | 1.6 | 8.0 | 0.00 | 0.00 | 0.00 | 74 | 1011.5 |
| 20260507114533 | 12 | 0 | 6.4 | 8.0 | 0.00 | 0.00 | 0.00 | 75 | 1011.5 |
| 20260507114033 | 12 | 0 | 4.8 | 9.7 | 0.00 | 0.00 | 0.00 | 76 | 1011.5 |
| 20260507113536 | 12 | 0 | 6.4 | 9.7 | 0.00 | 0.00 | 0.00 | 75 | 1011.5 |
| 20260507113031 | 12 | 0 | 3.2 | 9.7 | 0.00 | 0.00 | 0.00 | 75 | 1011.7 |
| 20260507112531 | 12 | 0 | 1.6 | 9.7 | 0.00 | 0.00 | 0.00 | 75 | 1011.7 |
| 20260507112030 | 12 | 0 | 6.4 | 9.7 | 0.00 | 0.00 | 0.00 | 76 | 1011.8 |
| 20260507111533 | 11 | 0 | 3.2 | 9.7 | 0.00 | 0.00 | 0.00 | 76 | 1011.5 |
| 20260507111030 | 11 | 0 | 4.8 | 12.9 | 0.00 | 0.00 | 0.00 | 76 | 1011.6 |
| 20260507110530 | 11 | 0 | 4.8 | 8.0 | 0.00 | 0.00 | 0.00 | 76 | 1011.6 |
| 20260507110040 | 11 | 0 | 3.2 | 8.0 | 0.00 | 0.00 | 0.00 | 78 | 1011.6 |
| 20260507105536 | 11 | 0 | 4.8 | 8.0 | 0.00 | 0.00 | 0.00 | 77 | 1011.7 |
| 20260507105033 | 11 | 0 | 3.2 | 9.7 | 0.00 | 0.00 | 0.00 | 77 | 1011.7 |
| 20260507104533 | 11 | 0 | 8.0 | 9.7 | 0.00 | 0.00 | 0.00 | 78 | 1011.6 |
| 20260507104037 | 11 | 0 | 4.8 | 9.7 | 0.00 | 0.00 | 0.00 | 78 | 1011.7 |
| 20260507103530 | 11 | 0 | 3.2 | 8.0 | 0.00 | 0.00 | 0.00 | 79 | 1011.7 |
| 20260507103034 | 11 | 0 | 6.4 | 9.7 | 0.00 | 0.00 | 0.00 | 79 | 1011.7 |
| 20260507102536 | 11 | 0 | 4.8 | 12.9 | 0.00 | 0.00 | 0.00 | 78 | 1011.7 |
| 20260507102031 | 11 | 0 | 3.2 | 9.7 | 0.00 | 0.00 | 0.00 | 77 | 1011.5 |
| 20260507101530 | 11 | 0 | 1.6 | 9.7 | 0.00 | 0.00 | 0.00 | 77 | 1011.5 |
| 20260507101036 | 11 | 0 | 3.2 | 9.7 | 0.00 | 0.00 | 0.00 | 78 | 1011.5 |
| 20260507100530 | 11 | 0 | 4.8 | 14.5 | 0.00 | 0.00 | 0.00 | 77 | 1011.6 |
| 20260507100030 | 11 | 0 | 3.2 | 9.7 | 0.00 | 0.00 | 0.00 | 77 | 1011.4 |
| 20260507095531 | 11 | 0 | 3.2 | 9.7 | 0.00 | 0.00 | 0.00 | 78 | 1011.3 |
| 20260507095033 | 11 | 0 | 6.4 | 9.7 | 0.00 | 0.00 | 0.00 | 78 | 1011.3 |
| 20260507094531 | 11 | 0 | 0.0 | 12.9 | 0.00 | 0.00 | 0.00 | 78 | 1011.1 |
| 20260507094030 | 10 | 0 | 4.8 | 8.0 | 0.00 | 0.00 | 0.00 | 79 | 1011.1 |
| 20260507093536 | 10 | 0 | 1.6 | 9.7 | 0.00 | 0.00 | 0.00 | 79 | 1011.0 |
| 20260507093031 | 10 | 0 | 4.8 | 9.7 | 0.00 | 0.00 | 0.00 | 77 | 1011.1 |
| 20260507092530 | 11 | 0 | 3.2 | 14.5 | 0.00 | 0.00 | 0.00 | 76 | 1011.0 |
| 20260507092034 | 11 | 0 | 3.2 | 12.9 | 0.00 | 0.00 | 0.00 | 77 | 1010.9 |
| 20260507091533 | 11 | 0 | 3.2 | 8.0 | 0.00 | 0.00 | 0.00 | 76 | 1010.9 |
| 20260507091030 | 10 | 0 | 3.2 | 9.7 | 0.00 | 0.00 | 0.00 | 76 | 1010.7 |
| 20260507090533 | 10 | 0 | 3.2 | 9.7 | 0.00 | 0.00 | 0.00 | 76 | 1010.7 |
| 20260507090030 | 10 | 0 | 4.8 | 6.4 | 0.00 | 0.00 | 0.00 | 76 | 1010.6 |
| 20260507085531 | 10 | 0 | 1.6 | 8.0 | 0.00 | 0.00 | 0.00 | 77 | 1010.7 |
| 20260507085030 | 10 | 0 | 3.2 | 8.0 | 0.00 | 0.00 | 0.00 | 77 | 1010.6 |
| 20260507084534 | 10 | 0 | 3.2 | 6.4 | 0.00 | 0.00 | 0.00 | 78 | 1010.6 |
| 20260507084037 | 10 | 0 | 3.2 | 8.0 | 0.00 | 0.00 | 0.00 | 79 | 1010.7 |
| 20260507083533 | 10 | 0 | 3.2 | 8.0 | 0.00 | 0.00 | 0.00 | 79 | 1010.7 |
| 20260507083036 | 10 | 0 | 1.6 | 6.4 | 0.00 | 0.00 | 0.00 | 79 | 1010.6 |
| 20260507082533 | 9 | 0 | 3.2 | 4.8 | 0.00 | 0.00 | 0.00 | 80 | 1010.5 |
| 20260507082031 | 9 | 0 | 1.6 | 4.8 | 0.00 | 0.00 | 0.00 | 80 | 1010.6 |
| 20260507081531 | 9 | 0 | 3.2 | 4.8 | 0.00 | 0.00 | 0.00 | 80 | 1010.6 |
| 20260507081033 | 9 | 0 | 3.2 | 4.8 | 0.00 | 0.00 | 0.00 | 80 | 1010.6 |
| 20260507080533 | 8 | 0 | 3.2 | 6.4 | 0.00 | 0.00 | 0.00 | 80 | 1010.7 |
| 20260507080034 | 8 | 0 | 3.2 | 4.8 | 0.00 | 0.00 | 0.00 | 81 | 1010.7 |
| 20260507075533 | 8 | 0 | 3.2 | 4.8 | 0.00 | 0.00 | 0.00 | 82 | 1010.8 |
| 20260507075034 | 8 | 0 | 1.6 | 4.8 | 0.00 | 0.00 | 0.00 | 82 | 1010.7 |
| 20260507074530 | 8 | 0 | 1.6 | 4.8 | 0.00 | 0.00 | 0.00 | 83 | 1010.8 |
| 20260507074031 | 8 | 0 | 1.6 | 3.2 | 0.00 | 0.00 | 0.00 | 83 | 1010.8 |
| 20260507073533 | 8 | 0 | 1.6 | 3.2 | 0.00 | 0.00 | 0.00 | 84 | 1010.9 |
| 20260507073036 | 8 | 0 | 1.6 | 3.2 | 0.00 | 0.00 | 0.00 | 84 | 1010.8 |
| 20260507072533 | 7 | 0 | 0.0 | 3.2 | 0.00 | 0.00 | 0.00 | 84 | 1010.8 |
| 20260507072030 | 7 | 0 | 1.6 | 3.2 | 0.00 | 0.00 | 0.00 | 83 | 1010.9 |
| 20260507071536 | 7 | 0 | 0.0 | 3.2 | 0.00 | 0.00 | 0.00 | 83 | 1010.9 |
| 20260507071033 | 7 | 0 | 3.2 | 3.2 | 0.00 | 0.00 | 0.00 | 83 | 1010.8 |
| 20260507070530 | 7 | 0 | 1.6 | 3.2 | 0.00 | 0.00 | 0.00 | 83 | 1010.8 |
| 20260507070031 | 7 | 0 | 1.6 | 3.2 | 0.00 | 0.00 | 0.00 | 83 | 1010.9 |
| 20260507065530 | 7 | 0 | 1.6 | 3.2 | 0.00 | 0.00 | 0.00 | 84 | 1010.9 |
| 20260507065030 | 7 | 0 | 1.6 | 1.6 | 0.00 | 0.00 | 0.00 | 84 | 1010.9 |
| 20260507064533 | 7 | 0 | 0.0 | 1.6 | 0.00 | 0.00 | 0.00 | 84 | 1010.8 |
| 20260507064030 | 6 | 0 | 0.0 | 1.6 | 0.00 | 0.00 | 0.00 | 84 | 1010.8 |
| 20260507063531 | 6 | 0 | 0.0 | 1.6 | 0.00 | 0.00 | 0.00 | 84 | 1010.8 |
| 20260507063033 | 6 | 0 | 0.0 | 1.6 | 0.00 | 0.00 | 0.00 | 85 | 1010.7 |
| 20260507062533 | 6 | 0 | 0.0 | 1.6 | 0.00 | 0.00 | 0.00 | 85 | 1010.8 |
| 20260507062031 | 6 | 0 | 0.0 | 1.6 | 0.00 | 0.00 | 0.00 | 86 | 1010.8 |
| 20260507061530 | 6 | 0 | 0.0 | 1.6 | 0.00 | 0.00 | 0.00 | 85 | 1010.8 |
| 20260507061033 | 6 | 0 | 0.0 | 0.0 | 0.00 | 0.00 | 0.00 | 87 | 1010.9 |
| 20260507060539 | 6 | 0 | 0.0 | 1.6 | 0.00 | 0.00 | 0.00 | 86 | 1011.0 |
| 20260507060030 | 6 | 0 | 0.0 | 1.6 | 0.00 | 0.00 | 0.00 | 87 | 1010.9 |
| 20260507055539 | 6 | 0 | 0.0 | 0.0 | 0.00 | 0.00 | 0.00 | 87 | 1010.9 |
| 20260507055036 | 6 | 0 | 0.0 | 1.6 | 0.00 | 0.00 | 0.00 | 87 | 1010.8 |
| 20260507054530 | 6 | 0 | 0.0 | 1.6 | 0.00 | 0.00 | 0.00 | 87 | 1010.7 |
| 20260507054033 | 6 | 0 | 0.0 | 1.6 | 0.00 | 0.00 | 0.00 | 88 | 1010.7 |
| 20260507053530 | 6 | 0 | 0.0 | 1.6 | 0.00 | 0.00 | 0.00 | 89 | 1010.6 |
| 20260507053031 | 5 | 0 | 0.0 | 0.0 | 0.00 | 0.00 | 0.00 | 90 | 1010.6 |
| 20260507052536 | 5 | 0 | 0.0 | 1.6 | 0.00 | 0.00 | 0.00 | 90 | 1010.4 |
| 20260507052030 | 5 | 0 | 0.0 | 1.6 | 0.00 | 0.00 | 0.00 | 90 | 1010.3 |
| 20260507051533 | 5 | 0 | 0.0 | 1.6 | 0.00 | 0.00 | 0.00 | 91 | 1010.5 |
| 20260507051031 | 5 | 0 | 1.6 | 1.6 | 0.00 | 0.00 | 0.00 | 90 | 1010.2 |
| 20260507050530 | 5 | 0 | 0.0 | 1.6 | 0.00 | 0.00 | 0.00 | 90 | 1010.3 |
| 20260507050033 | 5 | 0 | 0.0 | 1.6 | 0.00 | 0.00 | 0.00 | 90 | 1010.2 |
| 20260507045530 | 5 | 0 | 0.0 | 1.6 | 0.00 | 0.00 | 0.00 | 90 | 1010.1 |
| 20260507045033 | 5 | 0 | 0.0 | 1.6 | 0.00 | 0.00 | 0.00 | 90 | 1010.3 |
| 20260507044533 | 5 | 0 | 0.0 | 1.6 | 0.00 | 0.00 | 0.00 | 90 | 1010.3 |
| 20260507044036 | 5 | 0 | 1.6 | 3.2 | 0.00 | 0.00 | 0.00 | 90 | 1010.2 |
| 20260507043530 | 5 | 0 | 0.0 | 1.6 | 0.00 | 0.00 | 0.00 | 90 | 1010.2 |
| 20260507043030 | 4 | 0 | 1.6 | 1.6 | 0.00 | 0.00 | 0.00 | 90 | 1010.3 |
| 20260507042533 | 4 | 0 | 1.6 | 1.6 | 0.00 | 0.00 | 0.00 | 89 | 1010.1 |
| 20260507042033 | 5 | 0 | 0.0 | 1.6 | 0.00 | 0.00 | 0.00 | 89 | 1010.2 |
| 20260507041536 | 5 | 0 | 0.0 | 1.6 | 0.00 | 0.00 | 0.00 | 89 | 1010.2 |
| 20260507041030 | 5 | 0 | 1.6 | 1.6 | 0.00 | 0.00 | 0.00 | 89 | 1010.2 |
| 20260507040530 | 5 | 0 | 0.0 | 1.6 | 0.00 | 0.03 | 0.00 | 89 | 1010.3 |
| 20260507040031 | 5 | 0 | 1.6 | 1.6 | 0.00 | 0.03 | 0.00 | 89 | 1010.4 |
| 20260507035533 | 5 | 0 | 1.6 | 3.2 | 0.00 | 0.05 | 0.00 | 89 | 1010.6 |
| 20260507035033 | 5 | 0 | 1.6 | 3.2 | 0.00 | 0.08 | 0.00 | 89 | 1010.3 |
| 20260507034533 | 5 | 0 | 0.0 | 1.6 | 0.00 | 0.10 | 0.00 | 89 | 1010.4 |
| 20260507034033 | 5 | 0 | 0.0 | 1.6 | 0.00 | 0.18 | 0.00 | 89 | 1010.6 |
| 20260507033531 | 5 | 0 | 0.0 | 1.6 | 0.00 | 0.23 | 0.00 | 89 | 1010.5 |
| 20260507033033 | 5 | 0 | 1.6 | 1.6 | 0.00 | 0.30 | 0.00 | 89 | 1010.5 |
| 20260507032534 | 5 | 0 | 0.0 | 0.0 | 0.00 | 0.38 | 0.00 | 90 | 1010.8 |
| 20260507032030 | 5 | 0 | 0.0 | 0.0 | 0.00 | 0.46 | 0.00 | 90 | 1010.6 |
| 20260507031530 | 5 | 0 | 0.0 | 0.0 | 0.00 | 0.53 | 0.00 | 89 | 1010.6 |
| 20260507031030 | 5 | 0 | 0.0 | 1.6 | 0.00 | 0.56 | 0.00 | 89 | 1010.8 |
| 20260507030533 | 5 | 0 | 0.0 | 1.6 | 0.00 | 0.58 | 0.00 | 89 | 1010.5 |
| 20260507030033 | 5 | 0 | 1.6 | 3.2 | 0.00 | 0.64 | 0.00 | 89 | 1010.7 |
| 20260507025530 | 5 | 0 | 1.6 | 4.8 | 0.00 | 0.66 | 0.00 | 89 | 1010.8 |
| 20260507025030 | 5 | 0 | 1.6 | 4.8 | 0.00 | 0.66 | 0.00 | 89 | 1010.9 |
| 20260507024534 | 5 | 0 | 1.6 | 3.2 | 0.00 | 0.66 | 0.00 | 89 | 1010.9 |
| 20260507024030 | 5 | 0 | 1.6 | 3.2 | 0.00 | 0.66 | 0.00 | 89 | 1010.9 |
| 20260507023537 | 5 | 0 | 1.6 | 3.2 | 0.00 | 0.66 | 0.00 | 88 | 1010.9 |
| 20260507023030 | 5 | 0 | 1.6 | 1.6 | 0.00 | 0.69 | 0.00 | 88 | 1010.9 |
| 20260507022530 | 5 | 0 | 0.0 | 1.6 | 0.00 | 0.69 | 0.00 | 88 | 1011.0 |
| 20260507022033 | 5 | 0 | 1.6 | 3.2 | 0.00 | 0.74 | 0.00 | 88 | 1011.0 |
| 20260507021537 | 5 | 0 | 0.0 | 1.6 | 0.00 | 0.74 | 0.00 | 88 | 1011.1 |
| 20260507021034 | 5 | 0 | 0.0 | 1.6 | 0.00 | 0.74 | 0.00 | 87 | 1011.1 |
| 20260507020531 | 5 | 0 | 0.0 | 1.6 | 0.00 | 0.74 | 0.00 | 87 | 1011.1 |
| 20260507020033 | 5 | 0 | 0.0 | 1.6 | 0.00 | 0.74 | 0.00 | 87 | 1011.1 |
| 20260507015531 | 5 | 0 | 1.6 | 3.2 | 0.00 | 0.76 | 0.00 | 87 | 1011.3 |
| 20260507015030 | 5 | 0 | 1.6 | 1.6 | 0.00 | 0.79 | 0.00 | 87 | 1011.2 |
| 20260507014531 | 5 | 0 | 1.6 | 1.6 | 0.00 | 0.84 | 0.00 | 86 | 1011.4 |
| 20260507014036 | 5 | 0 | 0.0 | 1.6 | 0.00 | 0.84 | 0.00 | 86 | 1011.3 |
| 20260507013530 | 5 | 0 | 0.0 | 1.6 | 0.00 | 0.84 | 0.00 | 86 | 1011.4 |
| 20260507013030 | 6 | 0 | 1.6 | 3.2 | 0.00 | 0.84 | 0.00 | 86 | 1011.3 |
| 20260507012533 | 6 | 0 | 1.6 | 1.6 | 0.00 | 0.84 | 0.00 | 86 | 1011.3 |
| 20260507012033 | 6 | 0 | 0.0 | 1.6 | 0.00 | 0.84 | 0.00 | 87 | 1011.5 |
| 20260507011533 | 6 | 0 | 0.0 | 1.6 | 0.00 | 0.84 | 0.00 | 87 | 1011.4 |
| 20260507010536 | 6 | 0 | 1.6 | 1.6 | 0.00 | 0.84 | 0.00 | 86 | 1011.6 |
| 20260507010036 | 6 | 0 | 0.0 | 3.2 | 0.00 | 0.84 | 0.00 | 86 | 1011.6 |
| 20260507005531 | 5 | 0 | 1.6 | 3.2 | 0.00 | 0.84 | 0.00 | 86 | 1011.6 |
| 20260507005039 | 5 | 0 | 1.6 | 3.2 | 0.00 | 0.84 | 0.00 | 85 | 1011.7 |
| 20260507004536 | 6 | 0 | 0.0 | 1.6 | 0.00 | 0.84 | 0.00 | 85 | 1011.7 |
| 20260507004030 | 6 | 0 | 0.0 | 0.0 | 0.00 | 0.86 | 0.00 | 85 | 1011.7 |
| 20260507003533 | 6 | 0 | 0.0 | 1.6 | 0.00 | 0.86 | 0.00 | 85 | 1011.8 |
| 20260507003039 | 6 | 0 | 0.0 | 1.6 | 0.00 | 0.86 | 0.00 | 85 | 1011.7 |
| 20260507002533 | 6 | 0 | 0.0 | 1.6 | 0.00 | 0.86 | 0.00 | 85 | 1011.8 |
| 20260507002034 | 6 | 0 | 0.0 | 1.6 | 0.00 | 0.86 | 0.00 | 86 | 1011.9 |
| 20260507001533 | 6 | 0 | 1.6 | 1.6 | 0.00 | 0.89 | 0.00 | 86 | 1011.7 |
| 20260507001030 | 6 | 0 | 0.0 | 0.0 | 0.00 | 0.91 | 0.00 | 86 | 1011.8 |
| 20260507000534 | 6 | 0 | 0.0 | 1.6 | 0.00 | 0.94 | 0.00 | 85 | 1011.8 |
| 20260507000030 | 6 | 0 | 1.6 | 1.6 | 0.00 | 0.94 | 0.00 | 85 | 1011.9 |
| 20260506235536 | 6 | 0 | 1.6 | 1.6 | 0.00 | 0.97 | 0.00 | 85 | 1012.0 |
| 20260506235030 | 6 | 0 | 1.6 | 3.2 | 0.00 | 0.99 | 0.00 | 84 | 1012.1 |